sat.trackr.live / text

‹ back to catalog

STARLINK-4297

NORAD 53543 · 2022-101S

PAYLOAD ACTIVE UNKNOWN

§ Identity

Operator
Country
US
Launch date
2022-08-19
Launch site
AFETR
Launch vehicle
Mass (kg)
RCS (m²)

Purposes: comms

External: N2YO · Heavens-Above · Gunter

§ Orbital elements

Epoch: 2026-05-25T02:02:54.614112Z

Period
95.44 min
Inclination
53.2136°
Eccentricity
0.0001293
Mean motion
15.08843492 rev/d
Perigee alt
538.8 km
Apogee alt
540.6 km
Semi-major
6,917.9 km
B*
7.3604e-6
RAAN
81.2333°
Arg perigee
74.6498°
Mean anomaly
285.4637°
Rev number
20,852

§ Raw data

STARLINK-42971 53543U 22101S   26145.08535433 -.00000171  00000+0  73604-5 0  99992 53543  53.2136  81.2333 0001293  74.6498 285.4637 15.08843492208521

JSON: /api/v1/satellites/53543 · /tle

For live sub-satellite position, see the globe view (requires WebGL).

§ Visibility from observer

Set your observer location to see the next 7 days of passes ≥ 10°. The values pass through the URL so the page stays shareable.

No JS? Fill the form by hand. The geolocation button needs JavaScript.